Total_Precipitation_Accumulation
0.00 0.00 0.00 0.00 0.01 0.01 0.01 0.01 0.02 0.02 0.02 0.02 0.03 0.03 0.04 0.05 0.06 0.08 0.08 0.07 0.07 0.06 0.06 0.06 0.07 0.08 0.10 0.10 0.12 0.15 0.18 0.23 0.24 0.13 0.10 0.15 0.19 0.21 0.26 0.29 0.28 0.29 0.38
0.00 0.00 0.00 0.01 0.01 0.02 0.02 0.02 0.02 0.03 0.04 0.04 0.04 0.06 0.06 0.07 0.08 0.09 0.08 0.06 0.07 0.07 0.08 0.09 0.10 0.10 0.11 0.12 0.15 0.17 0.19 0.24 0.32 0.26 0.21 0.27 0.31 0.32 0.41 0.40 0.36 0.30 0.35
0.00 0.00 0.01 0.01 0.02 0.03 0.03 0.04 0.04 0.05 0.05 0.06 0.08 0.09 0.08 0.07 0.07 0.07 0.07 0.07 0.07 0.08 0.10 0.12 0.12 0.15 0.16 0.18 0.23 0.25 0.26 0.30 0.37 0.37 0.32 0.38 0.45 0.51 0.55 0.47 0.37 0.30 0.28
0.00 0.01 0.01 0.02 0.04 0.04 0.05 0.05 0.05 0.06 0.07 0.09 0.09 0.08 0.07 0.06 0.05 0.05 0.05 0.05 0.07 0.09 0.13 0.17 0.20 0.23 0.24 0.26 0.28 0.27 0.29 0.33 0.37 0.42 0.41 0.48 0.54 0.58 0.50 0.46 0.38 0.31 0.30
0.01 0.01 0.02 0.03 0.05 0.05 0.05 0.06 0.07 0.08 0.07 0.08 0.07 0.05 0.05 0.04 0.03 0.03 0.03 0.05 0.08 0.11 0.14 0.16 0.20 0.24 0.25 0.25 0.23 0.23 0.28 0.34 0.36 0.42 0.46 0.48 0.48 0.49 0.43 0.34 0.28 0.26 0.26
0.02 0.02 0.02 0.03 0.04 0.05 0.06 0.07 0.09 0.08 0.07 0.06 0.05 0.04 0.04 0.03 0.03 0.05 0.05 0.06 0.11 0.15 0.16 0.15 0.14 0.15 0.15 0.16 0.21 0.23 0.26 0.36 0.50 0.56 0.49 0.41 0.33 0.27 0.23 0.21 0.23 0.21 0.20
0.02 0.02 0.03 0.03 0.04 0.06 0.07 0.09 0.08 0.06 0.06 0.05 0.04 0.03 0.03 0.03 0.03 0.04 0.05 0.07 0.12 0.17 0.18 0.15 0.10 0.07 0.08 0.09 0.15 0.20 0.26 0.34 0.42 0.57 0.55 0.35 0.30 0.21 0.18 0.21 0.25 0.27 0.23
0.02 0.03 0.03 0.03 0.04 0.06 0.08 0.08 0.06 0.06 0.06 0.05 0.03 0.02 0.03 0.03 0.02 0.02 0.03 0.05 0.09 0.13 0.14 0.12 0.09 0.06 0.08 0.15 0.17 0.17 0.21 0.25 0.31 0.38 0.54 0.41 0.28 0.25 0.23 0.22 0.24 0.27 0.23
0.02 0.02 0.02 0.03 0.04 0.05 0.05 0.05 0.06 0.06 0.06 0.04 0.02 0.02 0.02 0.02 0.01 0.01 0.02 0.03 0.05 0.08 0.09 0.08 0.05 0.05 0.12 0.25 0.29 0.30 0.31 0.35 0.41 0.56 0.70 0.67 0.55 0.48 0.38 0.30 0.25 0.18 0.14
0.03 0.03 0.03 0.03 0.02 0.02 0.03 0.05 0.06 0.05 0.04 0.03 0.01 0.01 0.01 0.01 0.00 0.00 0.01 0.02 0.03 0.03 0.04 0.05 0.06 0.09 0.17 0.29 0.38 0.38 0.37 0.43 0.38 0.47 0.66 0.74 0.63 0.64 0.64 0.45 0.28 0.14 0.10
0.03 0.03 0.03 0.02 0.01 0.01 0.02 0.04 0.04 0.03 0.02 0.02 0.01 0.01 0.01 0.01 0.00 0.00 0.00 0.00 0.01 0.01 0.02 0.04 0.09 0.13 0.18 0.31 0.42 0.39 0.45 0.49 0.43 0.40 0.44 0.50 0.56 0.57 0.55 0.52 0.36 0.19 0.10
0.01 0.01 0.01 0.01 0.00 0.00 0.01 0.02 0.02 0.01 0.01 0.00 0.00 0.00 0.00 0.00 0.00 0.00 0.00 0.00 0.00 0.01 0.02 0.07 0.15 0.15 0.17 0.28 0.35 0.44 0.58 0.62 0.49 0.43 0.35 0.32 0.33 0.37 0.40 0.37 0.29 0.19 0.12
0.01 0.01 0.01 0.00 0.00 0.00 0.01 0.01 0.01 0.00 0.00 0.00 0.00 0.00 0.00 0.01 0.00 0.00 0.00 0.00 0.00 0.01 0.04 0.11 0.16 0.13 0.18 0.29 0.41 0.52 0.60 0.58 0.54 0.45 0.33 0.29 0.26 0.25 0.28 0.31 0.28 0.19 0.13
0.01 0.01 0.00 0.00 0.00 0.00 0.00 0.00 0.00 0.00 0.00 0.00 0.00 0.00 0.01 0.01 0.01 0.01 0.01 0.00 0.00 0.01 0.04 0.11 0.15 0.14 0.18 0.30 0.40 0.46 0.49 0.50 0.49 0.42 0.36 0.34 0.29 0.26 0.25 0.23 0.19 0.13 0.10
0.01 0.00 0.00 0.00 0.00 0.00 0.00 0.00 0.00 0.00 0.00 0.00 0.00 0.00 0.01 0.01 0.01 0.00 0.01 0.01 0.00 0.01 0.04 0.07 0.09 0.12 0.17 0.26 0.35 0.40 0.40 0.39 0.41 0.33 0.29 0.32 0.33 0.29 0.25 0.19 0.13 0.07 0.05
0.00 0.00 0.00 0.00 0.00 0.00 0.00 0.00 0.00 0.00 0.00 0.00 0.00 0.00 0.00 0.01 0.00 0.00 0.00 0.00 0.00 0.01 0.02 0.02 0.04 0.09 0.17 0.28 0.37 0.38 0.34 0.31 0.29 0.26 0.23 0.23 0.23 0.20 0.19 0.15 0.09 0.05 0.03
0.00 0.00 0.00 0.00 0.00 0.00 0.00 0.00 0.00 0.00 0.01 0.01 0.00 0.00 0.00 0.00 0.00 0.00 0.00 0.00 0.01 0.01 0.02 0.03 0.04 0.07 0.16 0.27 0.35 0.36 0.33 0.27 0.22 0.21 0.20 0.18 0.15 0.13 0.11 0.09 0.06 0.04 0.02
0.00 0.00 0.00 0.00 0.00 0.00 0.00 0.00 0.00 0.01 0.02 0.03 0.01 0.00 0.00 0.00 0.01 0.00 0.01 0.02 0.02 0.02 0.03 0.04 0.05 0.07 0.11 0.19 0.26 0.32 0.33 0.28 0.22 0.21 0.20 0.18 0.13 0.11 0.08 0.05 0.04 0.02 0.01
0.00 0.00 0.00 0.00 0.00 0.00 0.00 0.00 0.00 0.00 0.01 0.01 0.01 0.00 0.00 0.00 0.01 0.02 0.02 0.03 0.04 0.04 0.04 0.05 0.06 0.08 0.09 0.12 0.16 0.22 0.25 0.25 0.22 0.20 0.19 0.19 0.16 0.11 0.07 0.04 0.03 0.02 0.02
0.00 0.00 0.00 0.00 0.00 0.00 0.00 0.00 0.00 0.00 0.01 0.02 0.02 0.01 0.01 0.02 0.02 0.04 0.04 0.05 0.06 0.06 0.05 0.06 0.07 0.09 0.09 0.10 0.12 0.16 0.19 0.20 0.21 0.19 0.18 0.18 0.15 0.09 0.05 0.03 0.03 0.03 0.02
0.00 0.00 0.00 0.00 0.00 0.00 0.00 0.00 0.00 0.00 0.01 0.02 0.02 0.01 0.02 0.03 0.04 0.05 0.06 0.07 0.08 0.08 0.07 0.06 0.07 0.09 0.09 0.10 0.10 0.13 0.18 0.20 0.21 0.22 0.22 0.19 0.13 0.08 0.06 0.05 0.03 0.02 0.01
0.00 0.00 0.00 0.00 0.00 0.00 0.00 0.00 0.00 0.00 0.01 0.01 0.01 0.01 0.02 0.03 0.04 0.05 0.07 0.08 0.09 0.09 0.08 0.07 0.07 0.07 0.08 0.08 0.09 0.11 0.15 0.20 0.25 0.27 0.26 0.20 0.12 0.07 0.06 0.04 0.03 0.02 0.01
0.00 0.00 0.00 0.00 0.00 0.00 0.00 0.00 0.00 0.00 0.00 0.01 0.01 0.01 0.02 0.04 0.06 0.08 0.09 0.10 0.10 0.10 0.09 0.07 0.07 0.07 0.07 0.06 0.08 0.10 0.13 0.19 0.25 0.28 0.26 0.18 0.11 0.07 0.05 0.04 0.03 0.02 0.01
0.00 0.00 0.00 0.00 0.00 0.00 0.00 0.00 0.00 0.00 0.00 0.00 0.01 0.01 0.02 0.04 0.07 0.10 0.13 0.13 0.12 0.11 0.11 0.10 0.09 0.09 0.07 0.07 0.07 0.08 0.09 0.14 0.23 0.27 0.22 0.14 0.10 0.07 0.05 0.04 0.03 0.02 0.01
0.00 0.00 0.00 0.00 0.00 0.00 0.00 0.00 0.00 0.00 0.00 0.00 0.00 0.01 0.02 0.03 0.06 0.10 0.13 0.16 0.17 0.17 0.16 0.15 0.15 0.14 0.11 0.08 0.07 0.06 0.10 0.15 0.21 0.22 0.21 0.14 0.09 0.06 0.04 0.04 0.03 0.01 0.01
0.00 0.00 0.00 0.00 0.00 0.00 0.00 0.00 0.00 0.00 0.00 0.00 0.00 0.00 0.01 0.02 0.05 0.08 0.12 0.17 0.20 0.22 0.24 0.26 0.25 0.21 0.17 0.13 0.11 0.12 0.13 0.14 0.15 0.15 0.16 0.12 0.08 0.06 0.06 0.06 0.03 0.01 0.01